User: anonymous   Login
Location: Unspecified
(0.0000°N, 0.0000°E)
Time: 05:19:10
(UTC+00:00)
Language:

CUBEBUG 1 - Orbit

View from above orbital plane
View from above orbital plane
View from above satellite
View from above satellite

Ground track
Ground track

The orbit data is extracted from the following two-line orbital elements,

1 39153U 13018D   19083.86445382  .00000171  00000-0  29246-4 0  9991
2 39153  97.9742 182.4997 0018295 115.2587 245.0523 14.80528962319127
Epoch (UTC): 24 March 2019 20:44:48
Eccentricity: 0.0018295
inclination: 97.9742°
perigee height: 615 km
apogee height: 640 km
right ascension of ascending node: 182.4997°
argument of perigee: 115.2587°
revolutions per day: 14.80528962
mean anomaly at epoch: 245.0523°
orbit number at epoch: 31912

The dashed part of the orbit path shows where the satellite is in the earth's shadow,  

DLR